Weather History for KLVM - January, 2014

Change the Weather History Date:

Wednesday, January 1, 2014

  Actual Average Record
Temperature  
Mean Temperature 34 °F 26 °F  
Max Temperature 38 °F 36 °F 61 °F (1997)
Min Temperature 30 °F 16 °F -12 °F (1977)
Degree Days  
Heating Degree Days 31 39  
Month to date heating degree days 31 39  
Since 1 July heating degree days 2986 3204  
Cooling Degree Days 0 0  
Month to date cooling degree days 0  
Year to date cooling degree days 0  
Moisture  
Dew Point 21 °F    
Average Humidity 61    
Maximum Humidity 75    
Minimum Humidity 47    
Precipitation  
Precipitation T in 0.02 in 0.23 in (1997)
Month to date precipitation T 0.02  
Year to date precipitation T 0.02  
Sea Level Pressure  
Sea Level Pressure 30.27 in    
Wind  
Wind Speed 17 mph (WSW)    
Max Wind Speed 37 mph    
Max Gust Speed 45 mph    
Visibility 10 miles    
Events      
T = Trace of Precipitation, MM = Missing Value Source: NWS Daily Summary

Daily Weather History Graph

Daily Weather History Graph

Search for Another Location

Airport or City:

Trip Planner

Search our weather history database for the weather conditions in past years. The results will help you decide how hot, cold, wet, or windy it might be!

Date:

Astronomy

Jan. 01, 2014 Rise Set
Actual Time 8:02 AM MST 4:48 PM MST
Civil Twilight 7:28 AM MST 5:22 PM MST
Nautical Twilight 6:50 AM MST 6:00 PM MST
Astronomical Twilight 6:14 AM MST 6:36 PM MST
Moon 7:52 AM MST (1/1) 5:41 PM MST (1/1)
Length of Visible Light 9h 54m
Length of Day
8h 45m
New Moon, 0% of the Moon is Illuminated
Jan 1
New Moon
Jan 7
First Quarter
Jan 15
Full
Jan 23
Last Quarter
Jan 30
New

Hourly Weather History & Observations

Time (MST) Temp. Windchill Dew Point Humidity Pressure Visibility Wind Dir Wind Speed Gust Speed Precip Events Conditions
12:53 AM 36.0 °F 25.3 °F 26.1 °F 67% 30.07 in 10.0 mi WSW 19.6 mph - N/A   Overcast
1:53 AM 35.1 °F 27.4 °F 27.0 °F 72% 30.12 in 10.0 mi NW 10.4 mph - N/A   Overcast
2:53 AM 34.0 °F 27.2 °F 27.0 °F 75% 30.17 in 10.0 mi NW 8.1 mph - 0.00 in   Overcast
3:53 AM 33.1 °F 25.5 °F 27.0 °F 78% 30.19 in 10.0 mi WSW 9.2 mph - 0.00 in   Overcast
4:53 AM 34.0 °F 25.0 °F 26.1 °F 73% 30.21 in 10.0 mi West 12.7 mph - N/A   Overcast
5:53 AM 34.0 °F 23.4 °F 23.0 °F 64% 30.22 in 10.0 mi WSW 17.3 mph - N/A   Overcast
6:53 AM 33.1 °F 30.0 °F 21.9 °F 64% 30.28 in 10.0 mi West 3.5 mph - N/A   Overcast
7:53 AM 33.1 °F 24.4 °F 21.9 °F 64% 30.29 in 10.0 mi WSW 11.5 mph - N/A   Overcast
8:53 AM 34.0 °F 27.2 °F 21.0 °F 59% 30.33 in 10.0 mi WSW 8.1 mph - N/A   Overcast
9:53 AM 33.1 °F 22.6 °F 21.9 °F 64% 30.34 in 10.0 mi WSW 16.1 mph - N/A   Overcast
10:53 AM 34.0 °F 23.8 °F 21.0 °F 59% 30.35 in 10.0 mi WSW 16.1 mph - N/A   Overcast
11:53 AM 37.0 °F 26.4 °F 21.0 °F 52% 30.31 in 10.0 mi WSW 20.7 mph - N/A   Overcast
12:53 PM 37.9 °F 27.1 °F 21.0 °F 51% 30.30 in 10.0 mi West 23.0 mph 31.1 mph N/A   Clear
1:53 PM 37.9 °F 26.8 °F 19.9 °F 48% 30.29 in 10.0 mi West 24.2 mph - N/A   Partly Cloudy
2:53 PM 37.9 °F 27.9 °F 19.9 °F 48% 30.28 in 10.0 mi WSW 19.6 mph 26.5 mph N/A   Clear
3:53 PM 36.0 °F 25.6 °F 19.0 °F 50% 30.29 in 10.0 mi WSW 18.4 mph - N/A   Clear
4:53 PM 32.0 °F 22.5 °F 19.9 °F 61% 30.30 in 10.0 mi WSW 12.7 mph - N/A   Clear
5:53 PM 33.1 °F 21.5 °F 19.0 °F 56% 30.30 in 10.0 mi WSW 19.6 mph - N/A   Clear
6:53 PM 30.9 °F 22.2 °F 19.0 °F 61% 30.31 in 10.0 mi WSW 10.4 mph - N/A   Clear
7:53 PM 33.1 °F 23.0 °F 17.1 °F 52% 30.29 in 10.0 mi West 15.0 mph - N/A   Clear
8:53 PM 34.0 °F 21.3 °F 16.0 °F 48% 30.28 in 10.0 mi SW 25.3 mph 38.0 mph N/A   Clear
9:53 PM 33.1 °F 19.1 °F 16.0 °F 50% 30.27 in 10.0 mi SW 29.9 mph 40.3 mph N/A   Clear
10:53 PM 30.0 °F 16.0 °F 16.0 °F 56% 30.31 in 10.0 mi West 25.3 mph 32.2 mph N/A   Clear
11:53 PM 32.0 °F 17.0 °F 15.1 °F 50% 30.27 in 10.0 mi WSW 33.4 mph 44.9 mph N/A   Clear